EW3693 Weather Reports


Display with metric or nautical units.
time (UTC)temp
F
wind
direction
speed
MPH
gust
MPH
rain 1hr
in
rain 24hr
in
rain mn
in
humidity
%
barometer
mb
20260904121517 63 0 20.0 37.0 0.15 0.53 0.52 97 1004.3
20260904120517 66 0 19.0 31.0 0.03 0.39 0.39 98 1002.6
20260904115517 66 0 12.0 23.0 0.03 0.39 0.39 99 1002.8
20260904114537 66 0 11.0 20.0 0.03 0.39 0.39 98 1002.8
20260904113516 66 0 15.0 20.0 0.03 0.39 0.39 98 1003.1
20260904112516 66 0 16.0 23.0 0.02 0.39 0.38 98 1003.4
20260904111516 66 0 12.0 18.0 0.02 0.38 0.37 98 1003.5
20260904110517 66 0 12.0 16.0 0.02 0.36 0.35 98 1003.6
20260904105516 66 0 14.0 19.0 0.02 0.36 0.35 98 1003.7
20260904104516 66 0 12.0 19.0 0.03 0.36 0.35 98 1003.8
20260904103516 66 0 14.0 23.0 0.03 0.36 0.35 98 1004.0
20260904102516 66 0 6.0 10.0 0.03 0.36 0.35 99 1004.0
20260904101516 66 225 2.0 4.0 0.05 0.36 0.35 99 1004.1
20260904100517 65 225 4.0 6.0 0.05 0.35 0.34 99 1004.4
20260904095517 65 0 4.0 8.0 0.06 0.35 0.34 99 1004.8
20260904094516 66 0 7.0 10.0 0.06 0.33 0.32 99 1005.2
20260904093516 65 0 9.0 12.0 0.08 0.33 0.32 98 1005.5
20260904092517 65 0 13.0 16.0 0.09 0.33 0.32 98 1005.6
20260904091516 64 0 16.0 22.0 0.09 0.31 0.31 98 1005.6
20260904090516 64 0 10.0 14.0 0.09 0.30 0.29 98 1005.8
20260904085518 64 0 8.0 12.0 0.10 0.29 0.28 98 1006.0
20260904084518 64 0 7.0 15.0 0.11 0.28 0.27 98 1006.0
20260904083539 64 0 5.0 11.0 0.10 0.25 0.24 98 1006.2
20260904082518 64 0 6.0 11.0 0.11 0.24 0.24 98 1006.3
20260904081518 64 0 7.0 14.0 0.09 0.22 0.21 98 1006.4
20260904080518 64 0 6.0 11.0 0.08 0.20 0.20 98 1006.5
20260904075518 63 0 6.0 11.0 0.06 0.19 0.18 98 1006.7
20260904074520 63 0 6.0 11.0 0.04 0.17 0.16 98 1006.8
20260904073518 63 0 11.0 17.0 0.02 0.15 0.14 98 1007.1
20260904072518 63 0 14.0 19.0 0.01 0.13 0.13 98 1007.4
20260904071518 63 0 10.0 15.0 0.01 0.13 0.12 98 1007.2
20260904070518 63 0 5.0 12.0 0.02 0.13 0.12 98 1007.4
20260904065518 63 0 6.0 13.0 0.02 0.13 0.12 97 1007.6
20260904064518 63 0 7.0 13.0 0.02 0.13 0.12 97 1007.6
20260904063518 62 0 4.0 10.0 0.02 0.13 0.12 97 1007.7
20260904062518 62 0 6.0 13.0 0.02 0.13 0.12 97 1008.0
20260904061518 62 0 7.0 16.0 0.07 0.12 0.11 97 1008.2
20260904060518 62 0 6.0 12.0 0.09 0.11 0.10 97 1008.4
20260904055538 62 0 8.0 14.0 0.10 0.11 0.10 97 1008.4
20260904054518 62 0 7.0 17.0 0.10 0.11 0.10 96 1008.5
20260904053518 61 0 5.0 9.0 0.10 0.11 0.10 96 1008.8
20260904052518 61 225 1.0 3.0 0.09 0.10 0.09 96 1008.8
20260904051518 61 203 2.0 6.0 0.04 0.05 0.04 95 1009.0
20260904050518 61 203 2.0 6.0 0.01 0.02 0.01 94 1009.2
20260904045518 61 180 2.0 6.0 0.00 0.01 0.00 93 1009.3
20260904044518 61 180 2.0 6.0 0.00 0.01 0.00 93 1009.5
20260904043518 61 203 3.0 6.0 0.00 0.01 0.00 93 1009.9
20260904042518 61 203 2.0 6.0 0.00 0.01 0.00 93 1010.1
20260904041518 61 0 2.0 6.0 0.00 0.01 0.00 93 1010.3
20260904040518 61 0 4.0 9.0 0.00 0.01 0.00 92 1010.6
20260904035518 62 0 4.0 9.0 0.00 0.02 0.00 92 1010.6
20260904034538 62 0 4.0 8.0 0.00 0.02 0.00 92 1010.7
20260904033517 62 0 3.0 8.0 0.00 0.02 0.00 92 1010.7
20260904032518 62 0 5.0 11.0 0.00 0.02 0.00 91 1011.0
20260904031518 62 0 6.0 10.0 0.00 0.02 0.00 91 1011.1
20260904030518 62 0 5.0 10.0 0.00 0.02 0.00 91 1011.3
20260904025517 62 0 6.0 11.0 0.00 0.02 0.00 90 1011.4
20260904024517 62 0 6.0 12.0 0.00 0.02 0.00 90 1011.6
20260904023518 62 0 5.0 12.0 0.00 0.02 0.00 90 1011.5
20260904022518 62 0 6.0 9.0 0.00 0.02 0.00 90 1011.5
20260904021518 62 0 6.0 10.0 0.00 0.02 0.00 90 1011.7
20260904020518 62 0 9.0 13.0 0.00 0.02 0.00 90 1011.9
20260904015517 62 0 9.0 12.0 0.00 0.02 0.00 91 1011.8
20260904014518 62 0 9.0 12.0 0.00 0.02 0.00 91 1011.9
20260904013538 62 0 9.0 12.0 0.00 0.02 0.00 91 1012.1
20260904012517 62 0 9.0 13.0 0.00 0.02 0.00 91 1012.1
20260904011518 62 0 10.0 16.0 0.00 0.02 0.00 91 1012.3
20260904010518 62 0 10.0 14.0 0.00 0.02 0.00 91 1012.2
20260904005537 62 0 11.0 16.0 0.00 0.02 0.00 91 1012.4
20260904004517 62 0 13.0 19.0 0.00 0.02 0.00 91 1012.5
20260904003518 62 0 12.0 19.0 0.00 0.02 0.00 91 1012.5
20260904002517 62 0 12.0 17.0 0.00 0.02 0.00 91 1012.4
20260904001518 62 0 12.0 17.0 0.00 0.02 0.00 91 1012.5
20260904000537 62 0 11.0 14.0 0.00 0.02 0.00 91 1012.5
20260903235517 62 0 11.0 15.0 0.00 0.02 0.00 91 1012.5
20260903234517 62 0 10.0 13.0 0.00 0.02 0.00 90 1012.6
20260903233517 63 0 12.0 15.0 0.00 0.02 0.00 90 1012.6
20260903232537 63 0 11.0 14.0 0.00 0.02 0.00 90 1012.7
20260903231557 63 0 12.0 16.0 0.00 0.02 0.00 91 1012.8
20260903230517 62 0 11.0 16.0 0.00 0.02 0.00 91 1012.9
20260903225537 62 0 11.0 14.0 0.00 0.02 0.00 91 1012.9
20260903224518 62 0 9.0 11.0 0.00 0.02 0.00 91 1012.8
20260903223518 62 0 10.0 14.0 0.00 0.02 0.00 91 1012.9
20260903222517 63 0 10.0 14.0 0.00 0.02 0.00 91 1013.0
20260903221517 63 0 10.0 14.0 0.00 0.02 0.00 91 1012.9
20260903220517 63 0 10.0 16.0 0.00 0.02 0.00 91 1013.1
20260903215517 63 0 13.0 17.0 0.00 0.02 0.02 91 1013.1
20260903214517 63 0 11.0 16.0 0.00 0.02 0.02 92 1013.3
20260903213537 62 0 9.0 14.0 0.00 0.02 0.02 92 1013.2
20260903212517 63 0 4.0 6.0 0.00 0.02 0.02 92 1013.1
20260903211537 62 0 7.0 10.0 0.00 0.02 0.02 91 1013.2
20260903210537 63 0 6.0 9.0 0.00 0.02 0.02 91 1013.1
20260903205517 63 0 8.0 11.0 0.00 0.02 0.02 91 1013.2
20260903204537 63 0 8.0 11.0 0.00 0.02 0.02 90 1013.2
20260903203517 63 0 10.0 12.0 0.00 0.02 0.02 90 1013.1
20260903202517 63 0 12.0 16.0 0.00 0.02 0.02 90 1013.0
20260903201557 63 0 14.0 21.0 0.00 0.02 0.02 91 1013.0
20260903200517 63 0 15.0 20.0 0.00 0.02 0.02 92 1012.9
20260903195537 63 0 9.0 11.0 0.00 0.02 0.02 92 1013.0
20260903194517 63 0 6.0 9.0 0.00 0.02 0.02 91 1013.0
20260903193517 64 0 7.0 10.0 0.00 0.02 0.02 90 1013.0
20260903192517 64 0 9.0 11.0 0.00 0.02 0.02 90 1013.1
20260903191517 65 0 13.0 17.0 0.00 0.02 0.02 89 1013.1
20260903190517 64 0 13.0 19.0 0.00 0.02 0.02 90 1013.1
20260903185517 64 0 10.0 15.0 0.00 0.02 0.02 90 1012.9
20260903184517 64 0 6.0 9.0 0.00 0.02 0.02 90 1013.0
20260903183517 65 0 8.0 11.0 0.00 0.02 0.02 90 1012.9
20260903182517 64 0 10.0 14.0 0.00 0.02 0.02 91 1012.6
20260903181517 65 0 8.0 14.0 0.00 0.02 0.02 91 1012.7
20260903180537 65 0 8.0 11.0 0.00 0.02 0.02 91 1012.6
20260903175517 65 0 9.0 13.0 0.00 0.02 0.02 91 1012.5
20260903174516 66 0 10.0 14.0 0.00 0.02 0.02 91 1012.4
20260903173517 66 0 11.0 16.0 0.00 0.02 0.02 91 1012.4
20260903172516 66 0 5.0 13.0 0.00 0.02 0.02 91 1012.4
20260903171516 66 0 8.0 13.0 0.00 0.02 0.02 90 1012.4
20260903170517 67 0 9.0 13.0 0.00 0.02 0.02 89 1012.4
20260903165536 67 0 11.0 14.0 0.00 0.02 0.02 89 1012.1
20260903164516 68 0 8.0 14.0 0.00 0.02 0.02 88 1012.2
20260903163516 68 0 9.0 17.0 0.00 0.02 0.02 89 1012.2
20260903162517 68 0 11.0 15.0 0.00 0.02 0.02 88 1012.3
20260903161516 68 0 10.0 16.0 0.00 0.02 0.02 87 1012.4
20260903160517 68 0 13.0 20.0 0.00 0.02 0.02 88 1012.2
20260903155516 68 0 10.0 16.0 0.00 0.02 0.02 87 1012.2
20260903154516 68 0 10.0 19.0 0.00 0.02 0.02 87 1012.2
20260903153518 69 0 9.0 17.0 0.00 0.02 0.02 87 1012.1
20260903152516 69 0 12.0 20.0 0.00 0.02 0.02 86 1012.1
20260903151518 69 0 11.0 18.0 0.00 0.02 0.02 88 1012.2
20260903150518 68 0 12.0 18.0 0.00 0.02 0.02 88 1012.3
20260903145559 68 0 12.0 18.0 0.00 0.02 0.02 89 1012.5
20260903144518 67 0 11.0 16.0 0.00 0.02 0.02 89 1012.5
20260903143518 67 0 10.0 18.0 0.00 0.02 0.02 89 1012.6
20260903142518 68 0 10.0 16.0 0.00 0.02 0.02 91 1012.5
20260903141518 66 0 12.0 18.0 0.00 0.02 0.02 90 1012.6
20260903140518 66 0 12.0 17.0 0.00 0.02 0.02 90 1012.6
20260903135518 66 0 13.0 20.0 0.00 0.02 0.02 89 1012.7
20260903134538 66 0 10.0 17.0 0.01 0.02 0.02 89 1012.7
20260903133518 66 0 9.0 16.0 0.01 0.02 0.02 89 1012.6
20260903132518 65 0 11.0 18.0 0.01 0.02 0.02 90 1012.7
20260903131518 65 0 9.0 16.0 0.01 0.02 0.02 91 1012.7
20260903130518 65 0 8.0 13.0 0.01 0.02 0.02 92 1012.6
20260903124518 65 0 9.0 17.0 0.00 0.02 0.02 94 1012.8
20260903123518 64 0 8.0 13.0 0.00 0.02 0.02 94 1012.7
20260903122518 64 0 8.0 14.0 0.00 0.02 0.02 94 1012.9